COSMOS 249 DEB, 3695

Orbit data source: Space-Track

COSMOS 249 DEB, 3695 is space debris in LEO originally from a launch on Sun, 20 Oct 1968 UTC launched from the Tyuratam Missile And Space Complex (TTMTR). Debris objects in space refer to the collection of defunct objects orbiting the Earth. Examples of debris include non-operational satellites, rocket bodies, and fragments generated from explosions, collisions, or faulty payload assembly.

Loading next visibility...
Identifier
3695, 1968-091AL
Orbit
LEO
Country
Flag of CISCIS
Related business
Manufacturer
Unknown
Mission
Spacecraft
Bus & Motor
Unknown
Mass
Unknown
Launch date (UTC)
1968-10-20 (57 years ago)
Launch vehicle
Unknown
Launch site
Tyuratam Missile And Space Complex (TTMTR)
Object type
Payload
Rocket body
Debris
Shape & HBR
Unknown shape, 0.1 m
Radar Cross Section
Small (<0.1 m²)

Expand to show TLE details & history
Last TLE update: 2 days ago

TLE from 2 days ago
0 COSMOS 249 DEB
1 03695U 68091AL  25300.88864918  .00003863  00000-0  40738-2 0  9993
2 03695  62.2351 115.2643 0663294 182.5414 177.2153 13.06402730641835
Epoch: 2025-10-27T21:19Z
TLE epoch observation values (Epoch: 2025-10-27T21:19:39.289Z)
Latitude
-0.00001°
Longitude
118.86657°
Altitude
1,743.371 km
Speed
6.771 km/s
True Right ascension
07h 41m 03s
True Declination
0° 00' 00"
Sunlit
Object was in daylight at epoch
Visualization orbit readout
Latitude
Unknown
Longitude
Unknown
Altitude
Unknown
Speed
Unknown
Apparent Right ascension
Unknown
Apparent Declination
Unknown
Sunlit
N/A
Visualization observer readout
Local Sidereal Time
08:02:20
Azimuth
Unknown
Elevation
Unknown
Doppler factor
Unknown
Orbital elements
Apogee altitude
1,741.143 km
Perigee altitude
731.048 km
Semi-major axis
7,614.232 km
Eccentricity
0.06633
Inclination
62.2351°
RAAN
115.2643°
Arg. of periapsis
182.5414°
True anomaly
177.55625°
Mean anomaly
177.2153°
Eccentric anomaly
177.38846°
Mean motion
3.26666 °/min
Orbital period
110.2 mins
BSTAR
0.0040738
Loading maneuver chart data...
Computing Atmospheric mass density...
Loading historical data...
Loading historical data...
Loading historical data...
Loading historical data...
Loading historical data...
Loading historical data...
Loading historical data...

Documentation

Showing up to 5 results
|